Location: Stockholm
(59.3330°N, 18.0500°E)
Time: 23:37:31
(UTC+01:00)

Envisat - Visible Passes

Search period start: 28 November 2022 00:00
Search period end: 08 December 2022 00:00
Orbit: 763 x 765 km, 98.2° (Epoch: 28 November)

Date Brightness Start Highest point End Pass type
(mag) Time Alt. Az. Time Alt. Az. Time Alt. Az.
28 Nov 4.5 03:25:34 10° NNE 03:30:10 33° E 03:30:59 31° ESE visible
28 Nov 3.0 05:04:29 10° NNE 05:09:30 59° WNW 05:11:10 39° WSW visible
28 Nov 4.4 06:44:19 10° N 06:47:39 18° NW 06:50:59 10° W visible
28 Nov 5.7 16:30:39 10° SW 16:34:12 19° W 16:37:46 10° NW visible
29 Nov 5.3 02:49:06 10° NE 02:52:44 19° E 02:53:21 19° E visible
29 Nov 2.9 04:27:25 10° NNE 04:32:33 83° ESE 04:33:31 59° S visible
29 Nov 3.9 06:06:55 10° N 06:11:07 27° NW 06:13:41 18° W visible
29 Nov 5.0 15:52:13 10° SSW 15:56:45 32° W 16:01:19 10° NNW visible
30 Nov 5.9 02:13:54 10° ENE 02:15:06 11° ENE 02:15:43 11° E visible
30 Nov 3.8 03:50:28 10° NNE 03:55:25 48° E 03:55:53 46° ESE visible
30 Nov 3.3 05:29:39 10° N 05:34:25 41° WNW 05:36:04 32° WSW visible
30 Nov 4.7 07:09:47 10° N 07:12:18 14° NW 07:14:49 10° WNW visible
30 Nov 6.0 16:57:27 10° WSW 16:59:40 13° W 17:01:53 10° NW visible
01 Dec 4.8 03:13:44 10° NNE 03:18:06 28° E 03:18:16 28° E visible
01 Dec 2.8 04:52:30 10° NNE 04:57:35 69° WNW 04:58:26 57° WSW visible
01 Dec 4.3 06:32:13 10° N 06:35:51 20° NW 06:38:37 13° W visible
01 Dec 5.6 16:18:09 10° SW 16:22:05 22° W 16:26:03 10° NW visible
02 Dec 5.5 02:37:27 10° NE 02:40:36 16° E 02:40:39 16° E visible
02 Dec 3.1 04:15:27 10° NNE 04:20:33 70° ESE 04:20:49 69° SE visible
02 Dec 3.7 05:54:52 10° N 05:59:17 30° NW 06:01:00 24° W visible
02 Dec 4.6 15:39:58 10° SSW 15:44:42 38° W 15:49:27 10° NNW visible
03 Dec 4.2 03:38:34 10° NNE 03:43:13 40° E 03:43:13 40° E visible
03 Dec 3.1 05:17:38 10° N 05:22:32 48° WNW 05:23:23 44° W visible
03 Dec 4.5 06:57:37 10° N 07:00:32 16° NW 07:03:27 10° WNW visible
03 Dec 5.8 16:44:34 10° WSW 16:47:30 15° W 16:50:28 10° NW visible
04 Dec 5.1 03:01:56 10° NE 03:05:38 23° E 03:05:38 23° E visible
04 Dec 2.8 04:40:31 10° NNE 04:45:38 81° WNW 04:45:48 80° WSW visible
04 Dec 4.1 06:20:08 10° N 06:24:03 23° NW 06:25:58 18° W visible
04 Dec 5.3 16:05:44 10° SSW 16:09:59 26° W 16:14:16 10° NNW visible
05 Dec 5.8 02:25:57 10° NE 02:28:02 13° ENE 02:28:02 13° ENE visible
05 Dec 3.5 04:03:31 10° NNE 04:08:12 57° E 04:08:12 57° E visible
05 Dec 3.6 05:42:49 10° N 05:47:25 35° WNW 05:48:23 32° W visible
05 Dec 4.8 07:23:14 10° NNW 07:25:09 12° NW 07:27:05 10° WNW visible
06 Dec 4.6 03:26:41 10° NNE 03:30:38 32° ENE 03:30:38 32° ENE visible
06 Dec 3.0 05:05:38 10° NNE 05:10:37 57° WNW 05:10:48 57° WNW visible
06 Dec 4.4 06:45:29 10° N 06:48:45 18° NW 06:50:58 14° WNW visible
06 Dec 5.7 16:31:54 10° SW 16:35:22 18° W 16:38:51 10° NW visible
07 Dec 5.4 02:50:11 10° NE 02:53:03 19° ENE 02:53:03 19° ENE visible
07 Dec 3.0 04:28:33 10° NNE 04:33:13 74° NNE 04:33:13 74° NNE visible
07 Dec 3.9 06:08:04 10° N 06:12:13 26° NW 06:13:24 24° WNW visible
07 Dec 5.0 15:53:24 10° SSW 15:57:54 31° W 16:02:25 10° NNW visible
